TimeEDT,TemperatureF,Dew PointF,Humidity,Sea Level PressureIn,VisibilityMPH,Wind Direction,Wind SpeedMPH,Gust SpeedMPH,PrecipitationIn,Events,Conditions,WindDirDegrees,DateUTC
12:14 AM,47.3,41.9,82,29.70,10.0,ESE,3.5,-,N/A,,Mostly Cloudy,120,2013-05-15 04:14:00
12:34 AM,47.7,41.9,80,29.71,10.0,SSE,3.5,-,N/A,,Mostly Cloudy,160,2013-05-15 04:34:00
12:53 AM,47.5,41.9,81,29.69,10.0,SSE,3.5,-,N/A,,Overcast,160,2013-05-15 04:53:00
1:14 AM,48.2,41.5,78,29.68,10.0,SSE,4.6,-,N/A,,Mostly Cloudy,160,2013-05-15 05:14:00
1:34 AM,48.4,41.9,78,29.66,10.0,SSE,4.6,-,N/A,,Mostly Cloudy,150,2013-05-15 05:34:00
1:54 AM,48.2,41.9,79,29.64,10.0,SE,3.5,-,N/A,,Mostly Cloudy,130,2013-05-15 05:54:00
2:14 AM,48.2,42.4,80,29.63,10.0,SE,3.5,-,N/A,,Mostly Cloudy,130,2013-05-15 06:14:00
2:34 AM,48.2,42.8,82,29.61,10.0,SSE,6.9,-,N/A,,Mostly Cloudy,150,2013-05-15 06:34:00
2:54 AM,48.2,42.8,82,29.58,10.0,SE,4.6,-,N/A,,Mostly Cloudy,140,2013-05-15 06:54:00
3:14 AM,47.8,42.8,83,29.57,10.0,SE,4.6,-,N/A,,Overcast,140,2013-05-15 07:14:00
3:34 AM,47.5,42.8,84,29.56,10.0,SSE,3.5,-,N/A,,Scattered Clouds,150,2013-05-15 07:34:00
3:54 AM,47.3,42.6,84,29.54,10.0,SSE,3.5,-,N/A,,Clear,160,2013-05-15 07:54:00
4:14 AM,46.8,42.8,86,29.52,10.0,SE,4.6,-,N/A,,Clear,140,2013-05-15 08:14:00
4:34 AM,45.9,42.3,87,29.51,10.0,South,3.5,-,N/A,,Clear,170,2013-05-15 08:34:00
4:54 AM,46.4,42.8,87,29.50,10.0,Calm,Calm,-,N/A,,Clear,0,2013-05-15 08:54:00
5:14 AM,45.3,42.3,89,29.49,10.0,Calm,Calm,-,N/A,,Clear,0,2013-05-15 09:14:00
5:34 AM,45.5,42.4,89,29.48,7.0,Calm,Calm,-,N/A,,Clear,0,2013-05-15 09:34:00
5:54 AM,43.7,41.4,91,29.48,7.0,Calm,Calm,-,N/A,,Clear,0,2013-05-15 09:54:00
6:14 AM,43.0,41.2,93,29.48,5.0,Calm,Calm,-,N/A,,Clear,0,2013-05-15 10:14:00
6:34 AM,43.0,41.0,93,29.48,5.0,Calm,Calm,-,N/A,,Clear,0,2013-05-15 10:34:00
6:54 AM,43.5,42.1,95,29.48,5.0,SSW,3.5,-,N/A,,Clear,210,2013-05-15 10:54:00
7:14 AM,45.7,43.7,93,29.48,5.0,SW,4.6,-,N/A,,Clear,220,2013-05-15 11:14:00
7:34 AM,50.7,47.5,89,29.49,7.0,SW,5.8,-,N/A,,Clear,230,2013-05-15 11:34:00
7:54 AM,53.8,48.6,82,29.49,10.0,WSW,10.4,16.1,N/A,,Clear,250,2013-05-15 11:54:00
8:14 AM,57.0,49.1,75,29.50,10.0,West,10.4,-,N/A,,Clear,260,2013-05-15 12:14:00
8:34 AM,59.5,49.5,69,29.52,10.0,WSW,8.1,-,N/A,,Clear,250,2013-05-15 12:34:00
8:54 AM,62.8,50.0,63,29.53,10.0,West,4.6,-,N/A,,Clear,280,2013-05-15 12:54:00
9:14 AM,66.4,48.7,53,29.54,10.0,NW,16.1,20.7,N/A,,Clear,310,2013-05-15 13:14:00
9:34 AM,67.6,47.5,48,29.55,10.0,NW,16.1,21.9,N/A,,Clear,310,2013-05-15 13:34:00
9:54 AM,69.3,47.1,45,29.56,10.0,WNW,17.3,21.9,N/A,,Clear,300,2013-05-15 13:54:00
10:14 AM,70.2,46.6,43,29.57,10.0,WNW,18.4,23.0,N/A,,Clear,290,2013-05-15 14:14:00
10:34 AM,70.9,46.2,41,29.58,10.0,NW,15.0,23.0,N/A,,Clear,310,2013-05-15 14:34:00
10:54 AM,70.7,46.2,42,29.59,10.0,NW,17.3,21.9,N/A,,Clear,310,2013-05-15 14:54:00
11:14 AM,71.4,46.4,41,29.60,10.0,WNW,18.4,28.8,N/A,,Scattered Clouds,290,2013-05-15 15:14:00
11:34 AM,71.8,46.9,41,29.61,10.0,WNW,15.0,20.7,N/A,,Scattered Clouds,300,2013-05-15 15:34:00
11:53 AM,71.8,44.6,38,29.63,10.0,WNW,19.6,32.2,N/A,,Scattered Clouds,290,2013-05-15 15:53:00
12:14 PM,72.9,44.6,36,29.64,10.0,West,16.1,25.3,N/A,,Clear,280,2013-05-15 16:14:00
12:34 PM,72.9,42.4,33,29.65,10.0,NNW,15.0,25.3,N/A,,Clear,340,2013-05-15 16:34:00
12:54 PM,73.6,41.7,32,29.66,10.0,WNW,17.3,26.5,N/A,,Clear,290,2013-05-15 16:54:00
1:14 PM,74.1,41.5,31,29.66,10.0,NNW,17.3,24.2,N/A,,Clear,330,2013-05-15 17:14:00
1:34 PM,74.5,40.5,29,29.66,10.0,NNW,15.0,25.3,N/A,,Clear,330,2013-05-15 17:34:00
1:54 PM,74.3,40.5,30,29.67,10.0,WNW,20.7,26.5,N/A,,Clear,290,2013-05-15 17:54:00
2:14 PM,74.7,38.1,27,29.68,10.0,WNW,20.7,31.1,N/A,,Clear,290,2013-05-15 18:14:00
2:34 PM,75.2,39.9,28,29.68,10.0,West,16.1,24.2,N/A,,Clear,280,2013-05-15 18:34:00
2:54 PM,74.8,36.7,25,29.68,10.0,NW,17.3,32.2,N/A,,Clear,320,2013-05-15 18:54:00
3:14 PM,75.7,38.5,26,29.67,10.0,WNW,13.8,24.2,N/A,,Clear,290,2013-05-15 19:14:00
3:34 PM,76.5,37.8,25,29.68,10.0,NW,17.3,23.0,N/A,,Clear,320,2013-05-15 19:34:00
3:54 PM,76.5,37.2,24,29.69,10.0,West,19.6,26.5,N/A,,Clear,270,2013-05-15 19:54:00
4:14 PM,76.5,38.3,25,29.69,10.0,West,18.4,25.3,N/A,,Clear,270,2013-05-15 20:14:00
4:34 PM,75.6,35.4,23,29.68,10.0,WNW,17.3,25.3,N/A,,Clear,290,2013-05-15 20:34:00
4:54 PM,76.3,35.6,23,29.68,10.0,WNW,21.9,28.8,N/A,,Clear,290,2013-05-15 20:54:00
5:14 PM,75.4,36.1,24,29.69,10.0,WNW,21.9,29.9,N/A,,Clear,290,2013-05-15 21:14:00
5:33 PM,75.4,36.5,24,29.69,10.0,WNW,15.0,23.0,N/A,,Clear,290,2013-05-15 21:33:00
5:54 PM,75.6,36.1,24,29.69,10.0,West,20.7,25.3,N/A,,Clear,280,2013-05-15 21:54:00
6:14 PM,73.8,35.2,25,29.69,10.0,WNW,12.7,23.0,N/A,,Clear,290,2013-05-15 22:14:00
6:33 PM,74.3,35.4,24,29.69,10.0,WNW,19.6,27.6,N/A,,Clear,300,2013-05-15 22:33:00
6:54 PM,73.6,33.6,23,29.70,10.0,NW,21.9,25.3,N/A,,Clear,310,2013-05-15 22:54:00
7:14 PM,73.4,34.7,24,29.70,10.0,NW,12.7,19.6,N/A,,Clear,310,2013-05-15 23:14:00
7:33 PM,72.5,34.2,25,29.71,10.0,WNW,15.0,24.2,N/A,,Clear,300,2013-05-15 23:33:00
7:54 PM,71.6,34.0,25,29.72,10.0,WNW,12.7,23.0,N/A,,Clear,300,2013-05-15 23:54:00
8:14 PM,70.3,35.1,27,29.73,10.0,West,8.1,-,N/A,,Clear,280,2013-05-16 00:14:00
8:33 PM,69.1,34.5,28,29.73,10.0,WNW,9.2,-,N/A,,Clear,290,2013-05-16 00:33:00
8:54 PM,66.2,34.7,31,29.73,10.0,WNW,5.8,-,N/A,,Clear,290,2013-05-16 00:54:00
9:14 PM,64.4,34.7,33,29.74,10.0,WNW,5.8,-,N/A,,Clear,290,2013-05-16 01:14:00
9:34 PM,63.7,34.7,34,29.74,10.0,WNW,5.8,-,N/A,,Clear,290,2013-05-16 01:34:00
9:54 PM,60.4,35.6,40,29.75,10.0,West,4.6,-,N/A,,Clear,280,2013-05-16 01:54:00
10:14 PM,55.9,37.0,49,29.76,10.0,WNW,5.8,-,N/A,,Clear,290,2013-05-16 02:14:00
10:34 PM,57.6,35.8,44,29.76,10.0,WNW,4.6,-,N/A,,Clear,290,2013-05-16 02:34:00
10:54 PM,56.1,36.0,47,29.76,10.0,WNW,4.6,-,N/A,,Clear,300,2013-05-16 02:54:00
11:14 PM,54.5,36.5,51,29.76,10.0,WNW,4.6,-,N/A,,Clear,300,2013-05-16 03:14:00
11:34 PM,54.1,37.4,53,29.76,10.0,SW,6.9,-,N/A,,Clear,230,2013-05-16 03:34:00
11:54 PM,51.3,39.4,64,29.76,10.0,WSW,3.5,-,N/A,,Clear,250,2013-05-16 03:54:00